Regional Weather Roundup
Issued by NWS

Home | Current Version | Previous Version | Graphics & Text | Print | Product List | Glossary Off
Versions: 1 2 3 4 5 6 7 8 9 10 11 12 13 14 15 16 17 18 19 20 21 22 23 24 25 26 27 28 29 30 31 32 33 34 35 36 37 38 39 40 41 42 43 44 45 46 47 48 49 50

000
ASUS43 KMKX 260721
RWRWI

WISCONSIN REGIONAL WEATHER ROUNDUP
NATIONAL WEATHER SERVICE MILWAUKEE/SULLIVAN WI
100 AM CST FRI DEC 26 2014

NOTE: "FAIR" INDICATES FEW OR NO CLOUDS BELOW 12,000 FEET WITH NO
SIGNIFICANT WEATHER AND/OR OBSTRUCTIONS TO VISIBILITY.

WIZ001-002-006>008-014>016-023>028-260800-
NORTHWEST WISCONSIN

CITY           SKY/WX    TMP DP  RH WIND       PRES   REMARKS
SUPERIOR ARPT  CLOUDY    32  28  86 CALM      29.93R
ASHLAND        CLOUDY    31  30  96 CALM      29.92S FOG
HAYWARD        CLOUDY    30  29  96 CALM      29.88S FOG
SIREN          CLOUDY    31  31  99 NE3       29.88F FOG
CUMBERLAND     CLOUDY    30  30 100 NE3       29.86S FOG
RICE LAKE      CLOUDY    31  30  96 N5        29.87F FOG     WCI  26
CHETEK         CLOUDY    31  30  95 CALM      29.87S
LADYSMITH      CLOUDY    32  30  94 NE5       29.88S WCI  27
EAU CLAIRE     CLEAR     28  26  92 NE6       29.85F WCI  22
MENOMONIE      PTCLDY    28  28  96 N3        29.86S FOG
NEW RICHMOND   CLOUDY    31  31 100 NE5       29.86S FOG     WCI  26
OSCEOLA        CLOUDY    32  32 100 N3        29.90S FOG
$$

WIZ003>005-009-010-017-018-260800-
NORTH CENTRAL WISCONSIN

CITY           SKY/WX    TMP DP  RH WIND       PRES   REMARKS
MANITOWISH WTR CLOUDY    28  28 100 CALM      29.86F FOG
ARBOR VITAE    FOG       27  26  96 CALM      29.87S VSB 1/2
WOODRUFF       FOG       27  26  96 CALM      29.87S VSB 1/2
RHINELANDER    CLOUDY    28  27  96 E3        29.88R FOG
EAGLE RIVER    CLOUDY    28  28 100 CALM      29.87S FOG
LAND O LAKES   CLOUDY    29  29 100 CALM      29.89R FOG
PHILLIPS       CLOUDY    29  28  98 CALM      29.87R
TOMAHAWK       CLOUDY    29  28  95 CALM      29.88F FOG
MEDFORD        CLOUDY    26  25  96 E6        29.85F FOG     WCI  19
MERRILL        CLOUDY    29  28  99 NE3       29.87F FOG
$$

WIZ029-030-035-036-043>047-260800-
CENTRAL WISCONSIN

CITY           SKY/WX    TMP DP  RH WIND       PRES   REMARKS
WAUSAU         MOCLDY    28  26  92 E3        29.86F FOG
MOSINEE        MOCLDY    28  28 100 E3        29.88S
MARSHFIELD     MOCLDY    28  25  88 NE5       29.85F FOG     WCI  23
STEVENS POINT  MOCLDY    26  26  99 E3        29.88F FOG
WAUPACA        MOCLDY    29  28  96 CALM      29.90F FOG
WAUTOMA        PTCLDY    27  27 100 CALM      29.89F FOG
WISC RAPIDS    PTCLDY    27  24  89 CALM      29.88F FOG
CAMP DOUGLAS   MOCLDY    27  27 100 CALM      29.85F
$$

WIZ011>013-019>022-031-037>040-048>050-260800-
NORTHEAST WISCONSIN

CITY           SKY/WX    TMP DP  RH WIND       PRES   REMARKS
ANTIGO         MOCLDY    26  26  98 SE6       29.87F WCI  19
SHAWANO        PTCLDY    31  29  95 CALM      29.91F FOG
OCONTO         MOCLDY    28  28 100 CALM      29.92F
STURGEON BAY   FAIR      34  30  86 S6        29.95F WCI  29
GREEN BAY      PTCLDY    31  29  92 CALM      29.92F FOG
MANITOWOC      MOCLDY    29  28  96 CALM      29.94F FOG
APPLETON       MOCLDY    30  30 100 SE6       29.91F FOG     WCI  24
CLINTONVILLE   MOCLDY    28  27  93 CALM      29.90F FOG
OSHKOSH        PTCLDY    34  31  88 S9        29.91F WCI  27
$$

WIZ032>034-041-042-053>061-260800-
SOUTHWEST WISCONSIN

CITY           SKY/WX    TMP DP  RH WIND       PRES   REMARKS
LA CROSSE      MOCLDY    32  29  88 SE5       29.84S WCI  27
SPARTA         PTCLDY    27  27 100 CALM      29.85F
VIROQUA        MOCLDY    35  34  98 S10       29.83S WCI  27
BOSCOBEL       MOCLDY    39  32  76 S3        29.87F
PRAIRIE DU CHI MOCLDY    40  31  68 SE5       29.85S
PLATTEVILLE    CLOUDY    38  34  86 CALM      29.88S
$$

WIZ056-057-062-063-064-067-068-260800-
SOUTH CENTRAL WISCONSIN

CITY           SKY/WX    TMP DP  RH WIND       PRES   REMARKS
REEDSBURG      MOCLDY    38  33  83 S9        29.87S WCI  31
BARABOO/DELLS  MOCLDY    37  32  82 S10       29.87F WCI  30
LONE ROCK      MOCLDY    40  32  73 E8        29.88F WCI  34
MINERAL POINT  CLOUDY    37  34  87 SE9       29.87F WCI  31
MADISON        PTCLDY    37  32  82 S9        29.90F WCI  30
MIDDLETON      PTCLDY    38  34  82 S14       29.89F WCI  30
WATERTOWN      PTCLDY    35  34  95 S6        29.92F WCI  30
MONROE         PTCLDY    36  34  93 S16G22    29.90S WCI  26
JANESVILLE     FAIR      37  32  81 S5        29.93S WCI  34
$$

WIZ051-052-058>065-066-070>072-260800-
SOUTHEAST WISCONSIN

CITY           SKY/WX    TMP DP  RH WIND       PRES   REMARKS
MILWAUKEE      CLOUDY    38  32  79 SW9       29.97S WCI  31
WAUKESHA       CLOUDY    36  32  87 S12G17    29.95F WCI  27
MILWAUKEE/TIMM CLOUDY    37  32  81 S10       29.96S WCI  30
RACINE         MOCLDY    39  33  79 S10       29.99S WCI  32
BURLINGTON     MOCLDY    35  32  88 S12       29.96S WCI  27
KENOSHA        MOCLDY    39  33  79 S15       29.97S WCI  31
FOND DU LAC    PTCLDY    37  32  82 S13       29.91F WCI  29
SHEBOYGAN      MOCLDY    37  32  82 S6        29.94F WCI  32
WEST BEND      CLOUDY    37  32  81 S7        29.94F WCI  32
JUNEAU         PTCLDY    34  32  92 SE9       29.92F WCI  27
$$

LSZ147-162-260800-
LAKE SUPERIOR

STATION/POSITION TIME  TEMP    WIND        PRES    WAVE
                       AIR SEA DIR/SP/G            HT/PER
                 (UTC) (F)     (DEG/KT/KT) (MB)    (FT/S)
DEVILS ISLAND    0700   35     350/  5/  5 1014.0R
PORT WING        0600   32      CALM  /  2 1013.2S
SAXON HARBOR     0640   32        CALM     1013.2R
$$

LMZ867-665-643>646-260800-
LAKE MICHIGAN

STATION/POSITION TIME  TEMP    WIND        PRES    WAVE
                       AIR SEA DIR/SP/G            HT/PER
                 (UTC) (F)     (DEG/KT/KT) (MB)    (FT/S)
CHAMBERS ISLAND  0600   30        CALM     1014.2S
NORTHPORT PIER   0702   32        CALM     1014.2S
SISTER BAY       0613          160/  6/  7   N/A
ALGOMA LAKESHORE 0615             CALM       N/A
KEWAUNEE LAKESHO 0600   34      CALM  /  2 1013.4F
SHEBOYGAN LAKESH 0700   40 37  190/ 11/ 13 1014.8F
PORT WASHINGTON  0640   40     200/  5/  7 1015.2F
MILWAUKEE LAKESH 0700   40     210/  9/ 11   N/A
KENOSHA   LAKESH 0700   40     200/  9/ 17 1015.2S
$$

TC  - TEMPERATURE IN CELSIUS
VSB - VISIBILITY IN STATUTE MILES
WCI - WIND CHILL INDEX
HX  - HEAT INDEX



USA.gov is the U.S. government's official web portal to all federal, state and local government web resources and services.